Weather History for Fort Smith, AR

Change the Weather History Date:

Friday, April 5, 2013

  Actual Average Record
Temperature  
Mean Temperature 56 °F 59 °F  
Max Temperature 72 °F 71 °F 94 °F (1893)
Min Temperature 40 °F 46 °F 27 °F (1987)
Degree Days  
Heating Degree Days 9 7  
Month to date heating degree days 63 39  
Since 1 July heating degree days 2855 3098  
Cooling Degree Days 0 1  
Month to date cooling degree days 0 5  
Year to date cooling degree days 3 17  
Growing Degree Days 6 (Base 50)    
Moisture  
Dew Point 39 °F    
Average Humidity 56    
Maximum Humidity 89    
Minimum Humidity 22    
Precipitation  
Precipitation 0.00 in 0.13 in 2.31 in (1928)
Month to date precipitation 1.26 0.63  
Year to date precipitation 13.11 10.05  
Sea Level Pressure  
Sea Level Pressure 30.13 in    
Wind  
Wind Speed 3 mph (SW)    
Max Wind Speed 9 mph    
Max Gust Speed 13 mph    
Visibility 10 miles    
Events      
T = Trace of Precipitation, MM = Missing Value Source: NWS Daily Summary

Daily Weather History Graph

Daily Weather History Graph

Search for Another Location

Airport:

Trip Planner

Search our weather history database for the weather conditions in past years. The results will help you decide how hot, cold, wet, or windy it might be!

Date:

Astronomy

Apr. 05, 2013 Rise Set
Actual Time 6:58 AM CDT 7:42 PM CDT
Civil Twilight 6:32 AM CDT 8:08 PM CDT
Nautical Twilight 6:02 AM CDT 8:38 PM CDT
Astronomical Twilight 5:30 AM CDT 9:09 PM CDT
Moon 3:55 AM CDT (4/5) 3:16 PM CDT (4/5)
Length of Visible Light 13h 35m
Length of Day
12h 44m
Waning Crescent, 23% of the Moon is Illuminated
Apr 5
Waning Crescent
Apr 10
New
Apr 18
First Quarter
Apr 25
Full
May 2
Last Quarter

Hourly Weather History & Observations

Time (CDT) Temp. Windchill Dew Point Humidity Pressure Visibility Wind Dir Wind Speed Gust Speed Precip Events Conditions
12:53 AM 46.9 °F - 43.0 °F 86% 30.14 in 10.0 mi WSW 3.5 mph - N/A   Clear
1:53 AM 46.0 °F - 43.0 °F 89% 30.14 in 9.0 mi Calm Calm - N/A   Clear
2:53 AM 44.1 °F 40.8 °F 41.0 °F 89% 30.14 in 7.0 mi WSW 5.8 mph - N/A   Clear
3:53 AM 44.1 °F 40.8 °F 39.9 °F 85% 30.15 in 9.0 mi WSW 5.8 mph - N/A   Clear
4:53 AM 43.0 °F 39.5 °F 39.0 °F 86% 30.16 in 10.0 mi WSW 5.8 mph - N/A   Clear
5:53 AM 41.0 °F 36.4 °F 37.9 °F 89% 30.17 in 10.0 mi West 6.9 mph - N/A   Clear
6:53 AM 41.0 °F 36.4 °F 37.0 °F 86% 30.20 in 10.0 mi West 6.9 mph - N/A   Clear
7:53 AM 43.0 °F - 39.0 °F 86% 30.21 in 9.0 mi Calm Calm - N/A   Clear
8:53 AM 48.0 °F - 39.9 °F 74% 30.22 in 10.0 mi West 5.8 mph - N/A   Clear
9:53 AM 53.1 °F - 41.0 °F 64% 30.21 in 10.0 mi Calm Calm - N/A   Clear
10:53 AM 57.9 °F - 37.0 °F 46% 30.22 in 10.0 mi Calm Calm - N/A   Clear
11:53 AM 61.0 °F - 37.0 °F 41% 30.21 in 10.0 mi Calm Calm - N/A   Clear
12:53 PM 64.9 °F - 39.0 °F 39% 30.19 in 10.0 mi Calm Calm - N/A   Clear
1:53 PM 66.0 °F - 37.0 °F 34% 30.16 in 10.0 mi Variable 3.5 mph - N/A   Clear
2:53 PM 69.1 °F - 35.1 °F 29% 30.12 in 10.0 mi Calm Calm - N/A   Clear
3:53 PM 71.1 °F - 36.0 °F 28% 30.09 in 10.0 mi NW 4.6 mph - N/A   Clear
4:53 PM 71.1 °F - 35.1 °F 27% 30.07 in 10.0 mi SW 3.5 mph - N/A   Clear
5:53 PM 71.1 °F - 30.9 °F 23% 30.05 in 10.0 mi South 5.8 mph - N/A   Clear
6:53 PM 69.1 °F - 41.0 °F 36% 30.04 in 10.0 mi NE 5.8 mph - N/A   Clear
7:53 PM 64.9 °F - 42.1 °F 43% 30.04 in 10.0 mi East 5.8 mph - N/A   Clear
8:53 PM 62.1 °F - 39.9 °F 44% 30.03 in 10.0 mi Calm Calm - N/A   Clear
9:53 PM 61.0 °F - 37.9 °F 42% 30.04 in 10.0 mi SE 3.5 mph - N/A   Clear
10:53 PM 59.0 °F - 37.0 °F 44% 30.04 in 10.0 mi Calm Calm - N/A   Clear
11:53 PM 57.9 °F - 39.0 °F 49% 30.02 in 10.0 mi SE 4.6 mph - N/A   Clear